Flag for Sudan Weather past 2 weeks in Khartoum, Sudan

Now
93 °F

Sandstorm.


Feels Like: 89 °F
Forecast: 76 / 103 °F
Wind: 20 mph from North

Location: Khartoum Airport

Current Time: Apr 1, 2015 at 12:57:19 PM

Latest Report: Apr 1, 2015 at 12:00 PM


Visibility: 2 mi

Pressure: 29.92 "Hg

Humidity: 9%

Dew point: 27 °F

Location of KhartoumLocation

Historic Weather in Khartoum — Graph

°F

Khartoum temperature yesterday

Maximum temperature yesterday: 104 °F (at 4:00 PM)
Minimum temperature yesterday: 81 °F (at 7:00 AM)
Average temperature yesterday: 92 °F

Past Weeks' High & Low Weather Summary

 TemperatureHumidityPressure
High108 °F (Mar 28, 3:00 PM)21% (Mar 26, 3:00 AM)29.95 "Hg (Mar 26, 3:00 AM)
Low70 °F (Mar 20, 7:00 AM)4% (Mar 19, 5:00 PM)29.65 "Hg (Mar 28, 4:30 PM)
Average89 °F11%29.82 "Hg
* Reported Mar 17 12:00 Noon — Apr 1 12:00 Noon, Khartoum, Weather by CustomWeather, © 2015

Note: Actual official high and low records may vary slightly from our data, if they occured in-between our weather recording intervals... More about our weather records

Advertising

Khartoum weather history for previous 24 hours

 ConditionsComfort  
Time TempWeatherWind HumidityBarometerVisibility
12:00 PM
Wed, Apr 1
93 °FSandstorm.20 mph9%29.92 "Hg2 mi
11:00 AM90 °FSandstorm.18 mph10%29.92 "Hg2 mi
10:30 AMN/ASunny.18 mphN/A29.92 "Hg10 mi
10:00 AM86 °FSunny.16 mph11%29.95 "Hg10 mi
9:30 AMN/ASunny.14 mphN/A29.92 "Hg10 mi
8:30 AMN/ASandstorm.16 mphN/A29.92 "Hg5 mi
8:00 AM79 °FSandstorm.16 mph15%29.92 "Hg5 mi
6:30 AMN/AClear.15 mphN/A29.86 "Hg10 mi
3:00 AM84 °FClear.18 mph16%29.86 "Hg10 mi
2:30 AMN/AClear.18 mphN/A29.86 "Hg10 mi
2:00 AM86 °FClear.17 mph13%29.86 "Hg10 mi
1:00 AM88 °FSandstorm.17 mph11%29.86 "Hg5 mi
12:30 AMN/ASandstorm.17 mphN/A29.86 "Hg4 mi
12:00 AM90 °FSandstorm.22 mph8%29.86 "Hg1 mi
11:30 PM
Tue, Mar 31
N/ASandstorm.22 mphN/A29.86 "Hg1 mi
11:00 PM91 °FSandstorm.21 mph10%29.86 "Hg4 mi
10:30 PMN/ASandstorm.21 mphN/A29.86 "Hg4 mi
10:00 PM93 °FSandstorm.21 mph8%29.83 "Hg2 mi
9:30 PMN/ASandstorm.21 mphN/A29.83 "Hg2 mi
9:00 PM97 °FClear.14 mph12%29.83 "Hg10 mi
8:30 PMN/AClear.14 mphN/A29.80 "Hg10 mi
7:30 PMN/AClear.17 mphN/A29.77 "Hg10 mi
7:00 PM100 °FSunny.17 mph11%29.77 "Hg10 mi
6:30 PMN/ASandstorm.17 mphN/A29.77 "Hg5 mi
6:00 PM102 °FSandstorm.18 mph12%29.77 "Hg5 mi
5:30 PMN/ASandstorm.17 mphN/A29.77 "Hg5 mi
5:00 PM104 °FSandstorm.16 mph14%29.77 "Hg5 mi
4:30 PMN/ASandstorm.15 mphN/A29.77 "Hg5 mi
4:00 PM104 °FSandstorm.16 mph14%29.77 "Hg5 mi
3:30 PMN/ASandstorm.15 mphN/A29.77 "Hg5 mi
2:30 PMN/ASandstorm.15 mphN/A29.80 "Hg5 mi
1:30 PMN/A17 mphN/A29.83 "Hg5 mi
1:00 PM99 °FSunny.20 mph13%29.86 "Hg10 mi
12:30 PMN/ASunny.18 mphN/A29.86 "Hg10 mi
12:00 PM95 °FSunny.13 mph13%29.89 "Hg10 mi
Weather by CustomWeather, © 2015

See weather overviewHow to use our weather pages